GW1492 Weather Reports


time (UTC)temp
C
wind
direction
speed
KPH
gust
KPH
rain 1hr
cm
rain 24hr
cm
rain mn
cm
humidity
%
barometer
mb
20260906093946 19 125 0.0 0.0 0.00 0.00 0.00 95 1016.2
20260906093529 19 205 0.0 0.0 0.00 0.00 0.00 95 1016.2
20260906093114 19 205 0.0 0.0 0.00 0.00 0.00 95 1016.2
20260906092656 20 204 0.0 0.0 0.00 0.00 0.00 95 1016.2
20260906091340 20 119 0.0 0.0 0.00 0.00 0.00 95 1015.9
20260906090908 20 184 0.0 0.0 0.00 0.00 0.00 95 1015.9
20260906090002 20 173 0.0 0.0 0.00 0.00 0.00 95 1016.2
20260906085530 20 75 0.0 0.0 0.00 0.00 0.00 95 1016.2
20260906085113 20 357 0.0 0.0 0.00 0.00 0.00 95 1016.2
20260906084642 20 357 0.0 0.0 0.00 0.00 0.00 95 1016.2
20260906084212 20 226 0.0 0.0 0.00 0.00 0.00 95 1016.2
20260906083739 20 114 0.0 0.0 0.00 0.00 0.00 95 1015.9
20260906083323 20 160 0.0 0.0 0.00 0.00 0.00 95 1015.9
20260906082904 20 71 0.0 1.6 0.00 0.00 0.00 95 1016.2
20260906082433 20 78 1.6 3.2 0.00 0.00 0.00 94 1016.2
20260906082002 20 133 3.2 3.2 0.00 0.00 0.00 94 1016.2
20260906081515 20 213 0.0 0.0 0.00 0.00 0.00 94 1015.9
20260906081044 20 119 0.0 0.0 0.00 0.00 0.00 94 1015.9
20260906080614 20 99 0.0 0.0 0.00 0.00 0.00 94 1015.9
20260906080144 20 340 0.0 1.6 0.00 0.00 0.00 94 1016.2
20260906075726 20 317 0.0 0.0 0.00 0.00 0.00 94 1016.2
20260906074837 20 343 0.0 1.6 0.00 0.00 0.00 94 1016.2
20260906074422 20 341 1.6 3.2 0.00 0.00 0.00 94 1016.2
20260906074004 20 329 1.6 3.2 0.00 0.00 0.00 94 1016.2
20260906073533 20 206 0.0 0.0 0.00 0.00 0.00 94 1016.5
20260906073116 20 264 0.0 0.0 0.00 0.00 0.00 94 1016.2
20260906072227 20 338 0.0 1.6 0.00 0.00 0.00 94 1016.2
20260906071756 20 167 1.6 3.2 0.00 0.00 0.00 94 1016.2
20260906071340 20 165 0.0 0.0 0.00 0.00 0.00 94 1016.2
20260906070422 20 159 0.0 0.0 0.00 0.00 0.00 94 1016.2
20260906065518 20 196 0.0 0.0 0.00 0.00 0.00 94 1016.2
20260906064630 20 172 0.0 0.0 0.00 0.00 0.00 94 1016.2
20260906063725 20 184 0.0 0.0 0.00 0.00 0.00 94 1016.2
20260906063307 20 346 0.0 0.0 0.00 0.00 0.00 93 1016.2
20260906062851 20 181 0.0 0.0 0.00 0.00 0.00 93 1016.2
20260906062436 20 182 0.0 0.0 0.00 0.00 0.00 93 1016.2
20260906062002 20 334 0.0 0.0 0.00 0.00 0.00 93 1016.2
20260906061531 20 148 0.0 0.0 0.00 0.00 0.00 93 1016.2
20260906061114 20 225 0.0 0.0 0.00 0.00 0.00 93 1016.5
20260906060657 20 321 0.0 0.0 0.00 0.00 0.00 93 1016.5
20260906060242 20 309 0.0 0.0 0.00 0.00 0.00 93 1016.5
20260906055825 20 88 0.0 0.0 0.00 0.00 0.00 93 1016.5
20260906055410 20 76 0.0 0.0 0.00 0.00 0.00 93 1016.5
20260906054954 20 46 0.0 0.0 0.00 0.00 0.00 93 1016.9
20260906054053 20 326 0.0 0.0 0.00 0.00 0.00 92 1016.9
20260906053639 20 345 0.0 0.0 0.00 0.00 0.00 92 1017.2
20260906053208 20 351 0.0 0.0 0.00 0.00 0.00 92 1017.2
20260906052737 20 357 0.0 0.0 0.00 0.00 0.00 92 1016.9
20260906052306 20 354 0.0 0.0 0.00 0.00 0.00 92 1016.9
20260906051834 20 339 0.0 0.0 0.00 0.00 0.00 92 1016.9
20260906050918 20 350 0.0 0.0 0.00 0.00 0.00 94 1016.9
20260906050503 20 349 0.0 0.0 0.00 0.00 0.00 94 1016.9
20260906050033 20 346 0.0 0.0 0.00 0.00 0.00 94 1017.2
20260906045616 20 351 0.0 0.0 0.00 0.00 0.00 94 1017.2
20260906045159 20 75 0.0 0.0 0.00 0.00 0.00 94 1016.9
20260906044743 20 341 0.0 0.0 0.00 0.00 0.00 94 1016.9
20260906044312 20 62 0.0 0.0 0.00 0.00 0.00 94 1016.9
20260906043840 20 338 0.0 0.0 0.00 0.00 0.00 94 1016.9
20260906043410 20 338 0.0 0.0 0.00 0.00 0.00 94 1016.9
20260906042509 20 142 0.0 0.0 0.00 0.00 0.00 94 1016.9
20260906042054 20 121 0.0 0.0 0.00 0.00 0.00 94 1016.9
20260906041622 20 152 0.0 0.0 0.00 0.00 0.00 94 1016.9
20260906041136 20 153 0.0 0.0 0.00 0.00 0.00 94 1016.9
20260906040719 20 145 0.0 0.0 0.00 0.00 0.00 93 1017.2
20260906040302 20 109 0.0 0.0 0.00 0.00 0.00 93 1016.9
20260906035832 20 103 0.0 0.0 0.00 0.00 0.00 93 1017.2
20260906035415 20 129 0.0 1.6 0.00 0.00 0.00 93 1016.9
20260906034958 20 225 0.0 0.0 0.00 0.00 0.00 93 1016.9
20260906034545 20 221 0.0 0.0 0.00 0.00 0.00 93 1016.5
20260906033610 20 100 0.0 0.0 0.00 0.00 0.00 93 1017.2
20260906033156 21 107 6.4 35.4 0.00 0.00 0.00 93 1017.2
20260906032721 20 101 1.6 1.6 0.00 0.00 0.00 93 1017.2
20260906032250 20 90 1.6 3.2 0.00 0.00 0.00 94 1016.9
20260906031348 20 160 0.0 0.0 0.00 0.00 0.00 93 1016.9
20260906030444 20 128 0.0 0.0 0.00 0.00 0.00 93 1017.2
20260906030027 20 174 0.0 0.0 0.00 0.00 0.00 93 1017.2
20260906025556 20 222 0.0 0.0 0.00 0.00 0.00 93 1017.2
20260906025123 20 202 0.0 0.0 0.00 0.00 0.00 93 1017.2
20260906024650 20 235 0.0 0.0 0.00 0.00 0.00 93 1017.2
20260906024219 20 316 0.0 0.0 0.00 0.00 0.00 93 1017.2
20260906023746 20 334 0.0 0.0 0.00 0.00 0.00 93 1017.2
20260906022844 20 130 0.0 0.0 0.00 0.00 0.00 92 1017.2
20260906022412 21 149 0.0 0.0 0.00 0.00 0.00 92 1016.9
20260906021956 21 123 0.0 1.6 0.00 0.00 0.00 92 1017.2
20260906021526 21 330 0.0 0.0 0.00 0.00 0.00 92 1017.2
20260906021109 21 117 0.0 0.0 0.00 0.00 0.00 92 1016.9
20260906020621 21 319 0.0 0.0 0.00 0.00 0.00 92 1016.9
20260906020150 21 138 0.0 0.0 0.00 0.00 0.00 92 1017.2
20260906015305 21 320 0.0 0.0 0.00 0.00 0.00 91 1016.9
20260906014829 21 133 0.0 0.0 0.00 0.00 0.00 91 1017.2
20260906013941 21 290 0.0 0.0 0.00 0.00 0.00 90 1017.2
20260906013524 21 111 0.0 0.0 0.00 0.00 0.00 90 1017.2
20260906013051 21 93 0.0 0.0 0.00 0.00 0.00 90 1016.9
20260906011731 21 347 0.0 0.0 0.00 0.00 0.00 89 1016.9
20260906011245 21 18 0.0 0.0 0.00 0.00 0.00 88 1016.5
20260906010341 21 346 0.0 0.0 0.00 0.00 0.00 88 1016.9
20260906005924 21 347 0.0 0.0 0.00 0.00 0.00 89 1016.2
20260906005508 22 341 0.0 0.0 0.00 0.00 0.00 89 1016.5
20260906005036 21 70 0.0 0.0 0.00 0.00 0.00 88 1016.5
20260906004132 22 291 0.0 0.0 0.00 0.00 0.00 88 1016.2
20260906003714 22 309 0.0 0.0 0.00 0.00 0.00 88 1016.2
20260906003258 22 0 0.0 0.0 0.00 0.00 0.00 87 1016.2
20260906002811 22 357 0.0 0.0 0.00 0.00 0.00 88 1016.2
20260906002354 22 0 0.0 0.0 0.00 0.00 0.00 88 1016.2
20260906001937 22 347 0.0 0.0 0.00 0.00 0.00 88 1016.2
20260906001521 22 328 0.0 0.0 0.00 0.00 0.00 88 1016.2
20260906001049 22 329 0.0 0.0 0.00 0.00 0.00 88 1016.2
20260906000204 22 0 0.0 0.0 0.00 0.00 0.00 88 1016.2
20260905235744 22 346 0.0 0.0 0.00 0.00 0.00 87 1016.2
20260905235310 22 334 0.0 0.0 0.00 0.00 0.00 87 1016.2
20260905234839 22 331 0.0 0.0 0.00 0.00 0.00 87 1016.5
20260905234423 22 322 0.0 1.6 0.00 0.00 0.00 87 1016.2
20260905234007 22 333 1.6 3.2 0.00 0.00 0.00 87 1016.2
20260905233553 23 325 1.6 1.6 0.00 0.00 0.00 86 1016.2
20260905232654 23 338 1.6 3.2 0.00 0.00 0.00 86 1016.2
20260905232226 23 334 3.2 3.2 0.00 0.00 0.00 85 1016.5
20260905231756 23 135 0.0 0.0 0.00 0.00 0.00 85 1016.5
20260905230911 23 327 3.2 3.2 0.00 0.00 0.00 83 1016.2
20260905230441 24 324 3.2 4.8 0.00 0.00 0.00 83 1016.2
20260905230010 24 313 3.2 3.2 0.00 0.00 0.00 83 1016.2
20260905225055 23 337 3.2 4.8 0.00 0.00 0.00 83 1016.2
20260905224638 23 338 3.2 3.2 0.00 0.00 0.00 85 1016.2
20260905224220 23 323 3.2 3.2 0.00 0.00 0.00 85 1016.2
20260905223802 23 352 1.6 3.2 0.00 0.00 0.00 85 1016.2
20260905223333 24 321 3.2 3.2 0.00 0.00 0.00 84 1016.2
20260905222917 24 327 4.8 4.8 0.00 0.00 0.00 83 1016.2
20260905222503 24 334 4.8 4.8 0.00 0.00 0.00 84 1016.2
20260905222047 24 328 3.2 3.2 0.00 0.00 0.00 83 1016.2
20260905221632 24 331 3.2 3.2 0.00 0.00 0.00 83 1016.5
20260905220730 24 321 3.2 4.8 0.00 0.00 0.00 84 1016.2
20260905215838 23 321 3.2 4.8 0.00 0.00 0.00 84 1016.2
20260905214951 24 332 3.2 3.2 0.00 0.00 0.00 84 1016.2
20260905214521 24 330 4.8 6.4 0.00 0.00 0.00 82 1016.2
20260905214105 24 324 3.2 4.8 0.00 0.00 0.00 81 1016.2
20260905213636 24 322 4.8 4.8 0.00 0.00 0.00 81 1016.2
20260905212252 25 41 3.2 3.2 0.00 0.00 0.00 72 1016.5
20260905211407 24 310 1.6 3.2 0.00 0.00 0.00 85 1016.2
20260905210950 24 342 3.2 4.8 0.00 0.00 0.00 84 1016.2
20260905210536 24 335 3.2 3.2 0.00 0.00 0.00 84 1016.2
20260905210105 25 14 3.2 3.2 0.00 0.00 0.00 78 1016.2
20260905205617 24 252 1.6 3.2 0.00 0.00 0.00 82 1016.2
20260905204719 25 315 6.4 6.4 0.00 0.00 0.00 80 1016.2
20260905204301 25 117 1.6 3.2 0.00 0.00 0.00 76 1015.9
20260905203845 25 123 0.0 1.6 0.00 0.00 0.00 77 1016.2
20260905203430 24 359 3.2 3.2 0.00 0.00 0.00 82 1015.9
20260905203015 25 338 4.8 6.4 0.00 0.00 0.00 80 1016.2
20260905202601 25 118 3.2 3.2 0.00 0.00 0.00 75 1015.9
20260905202146 24 348 4.8 4.8 0.00 0.00 0.00 82 1015.9
20260905201732 25 343 4.8 4.8 0.00 0.00 0.00 80 1015.9
20260905201316 25 281 4.8 6.4 0.00 0.00 0.00 73 1015.9
20260905200846 25 64 3.2 3.2 0.00 0.00 0.00 76 1015.9
20260905200401 26 352 4.8 4.8 0.00 0.00 0.00 78 1015.9
20260905195946 25 124 6.4 6.4 0.00 0.00 0.00 76 1016.2
20260905195516 25 38 3.2 3.2 0.00 0.00 0.00 76 1016.2
20260905195100 25 166 3.2 4.8 0.00 0.00 0.00 77 1016.2
20260905194155 25 277 3.2 4.8 0.00 0.00 0.00 76 1016.2
20260905193708 25 334 6.4 8.0 0.00 0.00 0.00 76 1016.2
20260905193252 25 22 3.2 3.2 0.00 0.00 0.00 82 1016.2
20260905191933 23 95 3.2 3.2 0.00 0.00 0.00 84 1016.2
20260905191049 23 356 3.2 3.2 0.00 0.00 0.00 87 1016.5
20260905190617 23 337 3.2 3.2 0.00 0.00 0.00 87 1016.5
20260905185730 24 357 4.8 4.8 0.00 0.00 0.00 85 1016.9
20260905185314 24 354 3.2 3.2 0.00 0.00 0.00 86 1017.2
20260905184843 25 347 3.2 3.2 0.00 0.00 0.00 84 1017.2
20260905184429 25 351 1.6 3.2 0.00 0.00 0.00 83 1017.2
20260905183958 25 356 1.6 3.2 0.00 0.00 0.00 81 1017.2
20260905183527 25 351 3.2 3.2 0.00 0.00 0.00 82 1017.6
20260905183110 25 301 1.6 3.2 0.00 0.00 0.00 81 1017.6
20260905182652 25 308 3.2 4.8 0.00 0.00 0.00 81 1017.6
20260905182223 25 355 1.6 3.2 0.00 0.00 0.00 81 1017.6
20260905181805 25 326 3.2 4.8 0.00 0.00 0.00 82 1017.9
20260905180914 25 272 1.6 3.2 0.00 0.00 0.00 82 1017.9
20260905180012 25 69 0.0 1.6 0.00 0.00 0.00 82 1017.9
20260905175557 24 284 0.0 1.6 0.00 0.00 0.00 84 1017.9
20260905175143 25 30 0.0 0.0 0.00 0.00 0.00 85 1017.9
20260905174726 24 7 0.0 1.6 0.00 0.00 0.00 86 1018.2
20260905174257 24 19 0.0 1.6 0.00 0.00 0.00 86 1017.9
20260905173842 24 347 0.0 1.6 0.00 0.00 0.00 86 1017.9
20260905172955 22 187 0.0 1.6 0.00 0.00 0.00 90 1017.9
20260905172539 22 165 1.6 3.2 0.00 0.00 0.00 90 1018.2
20260905172109 21 210 3.2 3.2 0.00 0.00 0.00 91 1017.9
20260905171651 21 210 4.8 6.4 0.00 0.00 0.00 90 1017.9
20260905171238 21 183 1.6 3.2 0.00 0.00 0.00 92 1017.9
20260905170805 21 193 0.0 1.6 0.00 0.00 0.00 92 1017.9
20260905170335 21 147 1.6 3.2 0.00 0.00 0.00 93 1018.2
20260905165918 21 199 1.6 3.2 0.00 0.00 0.00 93 1018.6
20260905165501 21 237 0.0 1.6 0.00 0.00 0.00 94 1018.9
20260905165045 20 302 1.6 1.6 0.00 0.00 0.00 94 1018.6
20260905164629 20 311 1.6 3.2 0.00 0.00 0.00 94 1018.6
20260905164214 20 322 1.6 3.2 0.00 0.00 0.00 94 1018.6
20260905163742 20 330 1.6 3.2 0.00 0.00 0.00 94 1018.6
20260905163312 20 214 0.0 0.0 0.00 0.00 0.00 94 1018.9
20260905162840 20 291 0.0 0.0 0.00 0.00 0.00 94 1018.9
20260905161951 20 314 1.6 3.2 0.00 0.00 0.00 94 1018.6
20260905161536 20 217 0.0 0.0 0.00 0.00 0.00 94 1019.3
20260905160649 20 189 0.0 0.0 0.00 0.00 0.00 94 1019.6
20260905155332 19 112 0.0 0.0 0.00 0.00 0.00 94 1019.9
20260905154847 19 253 0.0 0.0 0.00 0.00 0.00 94 1019.9
20260905154417 19 293 0.0 0.0 0.00 0.00 0.00 93 1019.9
20260905153527 19 301 0.0 1.6 0.00 0.00 0.00 93 1019.9
20260905153111 19 329 1.6 3.2 0.00 0.00 0.00 93 1020.3
20260905152653 19 11 0.0 1.6 0.00 0.00 0.00 93 1020.9
20260905152236 19 356 1.6 3.2 0.00 0.00 0.00 92 1020.6
20260905151347 19 61 3.2 4.8 0.00 0.00 0.00 91 1020.9
20260905150930 20 50 0.0 0.0 0.00 0.00 0.00 89 1020.9
20260905150513 20 252 0.0 3.2 0.00 0.00 0.00 88 1020.9
20260905150057 21 339 8.0 12.9 0.00 0.00 0.00 83 1021.3
20260905145641 26 158 6.4 8.0 0.00 0.00 0.00 82 1020.6
20260905145225 26 164 0.0 1.6 0.00 0.00 0.00 80 1019.6
20260905144808 26 354 3.2 4.8 0.00 0.00 0.00 77 1018.6
20260905144352 27 300 3.2 4.8 0.00 0.00 0.00 76 1018.9
20260905143935 27 317 1.6 3.2 0.00 0.00 0.00 77 1018.6
20260905143504 26 313 3.2 4.8 0.00 0.00 0.00 79 1018.2
20260905143032 26 323 3.2 4.8 0.00 0.00 0.00 78 1018.2
20260905142615 26 308 3.2 3.2 0.00 0.00 0.00 78 1018.2
20260905142159 26 313 3.2 3.2 0.00 0.00 0.00 79 1017.9
20260905141740 26 308 1.6 3.2 0.00 0.00 0.00 79 1017.9
20260905141325 25 312 1.6 3.2 0.00 0.00 0.00 81 1017.9
20260905140838 25 327 3.2 4.8 0.00 0.00 0.00 82 1017.9
20260905140422 25 309 3.2 3.2 0.00 0.00 0.00 85 1018.2
20260905140005 25 316 3.2 3.2 0.00 0.00 0.00 85 1018.2
20260905135547 24 308 1.6 3.2 0.00 0.00 0.00 85 1018.2
20260905135130 24 316 3.2 4.8 0.00 0.00 0.00 85 1018.6
20260905134658 24 240 0.0 0.0 0.00 0.00 0.00 87 1018.6
20260905134242 23 312 1.6 3.2 0.00 0.00 0.00 87 1018.6
20260905132919 23 213 0.0 0.0 0.00 0.00 0.00 88 1018.2
20260905132448 23 318 1.6 3.2 0.00 0.00 0.00 87 1018.6
20260905132017 23 312 1.6 3.2 0.00 0.00 0.00 88 1018.6
20260905131546 22 313 1.6 3.2 0.00 0.00 0.00 88 1018.6
20260905131129 22 312 3.2 3.2 0.00 0.00 0.00 89 1018.9
20260905130713 22 320 0.0 0.0 0.00 0.00 0.00 89 1018.9
20260905125822 22 301 0.0 0.0 0.00 0.00 0.00 90 1018.6
20260905125404 22 320 1.6 3.2 0.00 0.00 0.00 90 1018.6
20260905124933 22 333 1.6 1.6 0.00 0.00 0.00 90 1018.9
20260905124501 22 334 1.6 1.6 0.00 0.00 0.00 90 1018.6
20260905124046 22 336 0.0 0.0 0.00 0.00 0.00 90 1018.9
20260905123616 22 11 0.0 0.0 0.00 0.00 0.00 90 1018.9
20260905123200 21 9 0.0 1.6 0.00 0.00 0.00 91 1018.6
20260905122743 21 4 0.0 0.0 0.00 0.00 0.00 91 1018.6
20260905121838 21 82 1.6 3.2 0.00 0.00 0.00 91 1018.6
20260905120507 21 102 1.6 3.2 0.00 0.00 0.00 92 1018.9
20260905120050 21 98 0.0 0.0 0.00 0.00 0.00 92 1018.6
20260905115604 21 75 0.0 1.6 0.00 0.00 0.00 92 1018.6
20260905115132 21 87 0.0 0.0 0.00 0.00 0.00 92 1018.6
20260905114715 21 347 0.0 1.6 0.00 0.00 0.00 92 1018.2
20260905114245 21 343 1.6 3.2 0.00 0.00 0.00 92 1018.6
20260905113830 21 342 3.2 3.2 0.00 0.00 0.00 92 1018.2
20260905112458 21 71 0.0 0.0 0.00 0.00 0.00 93 1018.2
20260905111614 21 90 0.0 1.6 0.00 0.00 0.00 93 1018.2
20260905111157 20 41 1.6 1.6 0.00 0.00 0.00 93 1018.2
20260905110312 20 85 0.0 0.0 0.00 0.00 0.00 94 1017.9
20260905105857 20 352 0.0 0.0 0.00 0.00 0.00 95 1017.9
20260905104939 20 117 1.6 3.2 0.00 0.00 0.00 95 1017.9
20260905104523 19 104 1.6 3.2 0.00 0.00 0.00 95 1017.9
20260905104107 19 148 0.0 1.6 0.00 0.00 0.00 95 1017.9
20260905103651 19 103 0.0 1.6 0.00 0.00 0.00 95 1018.2
20260905103220 19 96 1.6 3.2 0.00 0.00 0.00 95 1018.2
20260905102334 19 169 0.0 0.0 0.00 0.00 0.00 95 1017.9
20260905101450 20 131 0.0 0.0 0.00 0.00 0.00 95 1017.9
20260905100047 20 59 0.0 1.6 0.00 0.00 0.00 95 1017.9
20260905095630 19 107 0.0 0.0 0.00 0.00 0.00 95 1017.9
20260905095211 19 96 0.0 0.0 0.00 0.00 0.00 95 1017.9
20260905094739 19 269 0.0 0.0 0.00 0.00 0.00 95 1017.9
20260905094309 19 105 0.0 0.0 0.00 0.00 0.00 95 1017.9